Vasileios Alexiou

Scout - AEK
4 Apr 2027
Sonntag
Verarbeitung

Persönlichkeit

Anpassungsfähigkeit (3) Ehrgeiz (2) Kontroverse (3) Loyalität (3) Druck (9) Professionalität (20) Fairness (15) Temperament (2)

Profil

Trainerstil Demokratisch
Lizenz Kontinentale C
Entschlossenheit 13
Menschenführung 12
Motivation 14
Disziplin 9
Arbeitszufriedenheit
50%
Ermüdung
0%
Rolle Scout
Gehalt 16.3K p/W
Vertrag 14.03.2030

Leistung

Verhalten Normal
Trainingseffektivität
18%
Spielerentwicklung
25%
Verletzungsprävention
25%
Taktische Umsetzung
35%

Letzte Ereignisse

Nahm an einer Scouting-Besprechung teil jetzt
Nahm an einer Scouting-Besprechung teil 7T her
Spieler begutachtet 7T her
Spieler begutachtet 7T her
Spieler begutachtet 7T her
Spieler begutachtet 7T her
Spieler begutachtet 7T her
Spieler begutachtet 7T her

Aktuell beobachtet

115
Spieler Verein Status Fähigkeit Vertrauen Beobachtet Zuletzt beobachtet Letzte Stimme
Zeidane Inoussa Swansea City Aktiv 137 / 110 40% 2 03.04.2027 -
Nazar Voloshyn Dynamo Kyiv Aktiv 131 / 125 40% 2 03.04.2027 -
Stanley Mills Oxford United Aktiv 129 / 118 40% 1 03.04.2027 -
Felipe Augusto Zenit Aktiv 132 / 134 40% 7 01.04.2027 -
Kauã Elias Shakhtar Aktiv 140 / 128 40% 4 01.04.2027 -
Devin Haen Willem II Aktiv 122 / 115 40% 1 01.04.2027 -
Ali Soliman Masr El Makasa Aktiv 139 / 131 40% 4 28.03.2027 -
Relebohile Mofokeng Orlando Pirates Aktiv 118 / 138 40% 2 28.03.2027 -
Rocco Vata Watford Aktiv 111 / 112 40% 2 28.03.2027 -
Allahyar Sayyadmanesh Lech Aktiv 136 / 129 40% 1 27.03.2027 -
Ibrahim Bayesh Al Dhafra Aktiv 131 / 137 40% 1 27.03.2027 -
Gabriel Sara Galatasaray Aktiv 144 / 146 40% 1 27.03.2027 -
Leandro Andrade Polissia Aktiv 130 / 135 40% 2 26.03.2027 -
Olakunle Olusegun Rostov Aktiv 131 / 116 40% 1 26.03.2027 -
Mohamed Ali Ben Romdhane Al Ahly Aktiv 127 / 124 40% 1 25.03.2027 -
Rumarn Burrell Queens Park Rangers Aktiv 132 / 130 40% 1 25.03.2027 -
Christos Zafeiris Galatasaray Aktiv 140 / 154 40% 2 24.03.2027 -
Ricky-Jade Jones St. Pauli Aktiv 125 / 108 40% 1 24.03.2027 -
Miro Dinamo Makhachkala Aktiv 106 / 124 40% 1 24.03.2027 -
Samuele Birindelli Monza Aktiv 122 / 136 40% 1 24.03.2027 -
Sergey Pinyaev Lokomotiv Moscow Aktiv 134 / 127 40% 2 22.03.2027 -
Gerónimo Rivera Al Wahda Aktiv 128 / 134 40% 2 21.03.2027 -
Alex Robertson Cardiff City Aktiv 136 / 121 40% 2 20.03.2027 -
Ramadan Mohsen Zamalek Aktiv 132 / 116 40% 2 19.03.2027 -
Moses Cobnan Krasnodar Aktiv 127 / 110 40% 5 19.03.2027 -
Cédric Don Maccabi Haifa Aktiv 135 / 112 40% 3 19.03.2027 -
Matija Frigan Parma Aktiv 136 / 138 40% 2 19.03.2027 -
Reyes Cleary Barnsley Aktiv 116 / 122 40% 1 19.03.2027 -
Luan Pereira Sharjah Aktiv 138 / 112 40% 1 19.03.2027 -
Facundo Torres Shakhtar Aktiv 135 / 129 40% 1 19.03.2027 -
David Romero Parma Aktiv 130 / 134 40% 2 17.03.2027 -
Dom Ballard Leyton Orient Aktiv 125 / 137 40% 1 17.03.2027 -
Peter Itodo Metalist Aktiv 113 / 106 40% 1 15.03.2027 -
Eguinaldo Shakhtar Aktiv 132 / 142 40% 1 15.03.2027 -
Teboho Tau Ajax Cape Town Aktiv 112 / 116 40% 2 13.03.2027 -
Oleh Ocheretko Shakhtar Aktiv 134 / 126 40% 3 13.03.2027 -
Romano Floriani Mussolini Modena Aktiv 134 / 139 40% 1 13.03.2027 -
Tyreece Campbell Charlton Athletic Aktiv 107 / 127 40% 2 11.03.2027 -
Abdullah Juma Al Ahli Aktiv 143 / 132 40% 2 11.03.2027 -
Rok Zajc NK Domzale Aktiv 121 / 126 40% 3 09.03.2027 -
Rodrigo Huescas FC Copenhagen Aktiv 126 / 122 40% 3 30.12.2026 -
Nahuel Ulariaga Al Ahli Aktiv 137 / 120 40% 2 29.12.2026 -
Myles Peart-Harris Plymouth Argyle Aktiv 132 / 125 40% 2 29.12.2026 -
Felipe Zenobio Tigre Aktiv 128 / 134 40% 1 26.12.2026 -
Nathan Bishop AFC Wimbledon Aktiv 97 / 100 40% 1 26.12.2026 -
Josh Keeley Luton Town Aktiv 117 / 134 40% 2 25.12.2026 -
Murphy Cooper Plymouth Argyle Aktiv 114 / 101 40% 1 25.12.2026 -
Jakub Surovčík Sparta Prague Aktiv 111 / 117 40% 1 24.12.2026 -
Mandla Jali SuperSport United Aktiv 102 / 117 40% 1 24.12.2026 -
Charlie Webster Burton Albion Aktiv 104 / 132 40% 1 23.12.2026 -
Tadeo Allende Inter Miami CF Aktiv 121 / 116 40% 1 22.12.2026 -
Kyreece Lisbie Colchester United Aktiv 98 / 96 40% 1 22.12.2026 -
Alan Velasco Boca Juniors Aktiv 134 / 133 40% 3 21.12.2026 -
Oleksandr Saputin Zorya Aktiv 106 / 122 40% 2 18.12.2026 -
Matías González Volos NPS Aktiv 113 / 108 40% 1 16.12.2026 -
Dale Taylor Blackpool Aktiv 120 / 122 40% 1 15.12.2026 -
Ammar Ramadan DAC Dunajska Streda Aktiv 122 / 123 40% 2 14.12.2026 -
Jerome Karelse Golden Arrows Aktiv 98 / 96 40% 1 13.12.2026 -
Clayton Olympiacos Aktiv 130 / 121 40% 1 13.12.2026 -
Pol Tristán Bradford City Aktiv 120 / 104 40% 1 11.12.2026 -
Jamie Cumming Oxford United Aktiv 134 / 116 40% 1 11.12.2026 -
Ibrahim Tarek Masr El Makasa Aktiv 112 / 134 40% 1 10.12.2026 -
Akinkunmi Amoo Ismaily Aktiv 121 / 123 40% 2 06.12.2026 -
Nicolás Andereggen Ethnikos Achnas Aktiv 123 / 102 40% 1 05.12.2026 -
Etiosa Ighodaro Kaizer Chiefs Aktiv 119 / 111 40% 3 04.12.2026 -
Brayan León Mamelodi Sundowns Aktiv 130 / 118 40% 1 04.12.2026 -
Percy Kekana Platinum Stars Aktiv 108 / 110 40% 2 01.12.2026 -
Percy Erasmus SuperSport United Aktiv 143 / 128 40% 3 29.11.2026 -
Assad Al Hamlawi Universitatea Craiova Aktiv 114 / 114 40% 1 29.11.2026 -
Malik Mothersille Stockport County Aktiv 117 / 105 40% 2 27.11.2026 -
Camilo Durán Bloemfontein Celtic Aktiv 125 / 117 40% 2 25.11.2026 -
Alexander Díaz Deportivo Riestra Aktiv 121 / 117 40% 1 23.11.2026 -
Marios Siabanis Volos NPS Aktiv 111 / 117 40% 1 21.11.2026 -
Bogdan Ovsyannikov Orenburg Aktiv 105 / 99 40% 1 20.11.2026 -
Nikos Christogeorgos OFI Aktiv 113 / 107 40% 2 19.11.2026 -
Marcus Bundgaard SonderjyskE Aktiv 125 / 107 40% 1 19.11.2026 -
Exequiel Zeballos Boca Juniors Aktiv 134 / 137 40% 1 18.11.2026 -
Ciprian Coman Pandurii Aktiv 117 / 123 40% 1 17.11.2026 -
Ruslan Neshcheret Dynamo Kyiv Aktiv 128 / 126 40% 2 15.11.2026 -
Enzo Vázquez Central Norte Aktiv 112 / 119 40% 1 15.11.2026 -
Sota Kitano Red Bull Salzburg Aktiv 108 / 108 40% 1 13.11.2026 -
Marko Brest Olimpija Ljubljana Aktiv 117 / 107 40% 1 13.11.2026 -
Mfundo Vilakazi Kaizer Chiefs Aktiv 123 / 127 40% 1 11.11.2026 -
Pedro Zenit Aktiv 129 / 136 40% 1 09.11.2026 -
Manfred Ugalde Spartak Moscow Aktiv 134 / 139 40% 1 07.11.2026 -
Telasco Segovia Inter Miami CF Aktiv 116 / 146 40% 4 05.11.2026 -
Tornike Morchiladze HNK Rijeka Aktiv 110 / 112 40% 1 05.11.2026 -
Fiete Arp OB Aktiv 129 / 141 40% 1 03.11.2026 -
Robert FC Copenhagen Aktiv 134 / 128 40% 1 30.10.2026 -
Dmytro Riznyk Shakhtar Aktiv 141 / 131 40% 1 30.10.2026 -
Andreas Keravnos AEL Aktiv 84 / 83 40% 1 27.10.2026 -
Samuel Brolin Kalmar FF Aktiv 98 / 113 40% 1 27.10.2026 -
Ibrahim Aliyu Houston Dynamo Aktiv 107 / 117 40% 1 25.10.2026 -
Tobias Bech AGF Aktiv 136 / 114 40% 1 25.10.2026 -
Kristian Arnstad AGF Aktiv 122 / 119 40% 1 22.10.2026 -
Suleiman Camara Slovan Bratislava Aktiv 123 / 130 40% 1 22.10.2026 -
Francisco Tinaglini Panserraikos Aktiv 96 / 111 40% 1 20.10.2026 -
Jack McGlynn Houston Dynamo Aktiv 128 / 128 40% 1 18.10.2026 -
David Ankeye Zeleznicar Pancevo Aktiv 112 / 119 40% 1 17.10.2026 -
Quinn Sullivan Philadelphia Union Aktiv 124 / 114 40% 1 15.10.2026 -
Chris Brady Chicago Fire Aktiv 137 / 145 40% 1 15.10.2026 -
Lukas Gütlbauer Wolfsberger AC Aktiv 117 / 117 40% 1 15.10.2026 -
Armindo Sieb Los Angeles Football Club Aktiv 103 / 119 40% 1 12.10.2026 -
Luca Langoni New England Revolution Aktiv 122 / 113 40% 1 08.10.2026 -
Adrian Svanbäck BK Hacken Aktiv 130 / 110 40% 1 07.10.2026 -
Jeong Sang-Bin St. Louis CITY SC Aktiv 123 / 130 40% 1 06.10.2026 -
Arkaitz Mariezkurrena Real Sociedad Aktiv 111 / 108 40% 1 06.10.2026 -
Chris Rigg Sunderland Aktiv 123 / 135 40% 1 01.10.2026 -
Dominik Marczuk Real Salt Lake Aktiv 101 / 114 40% 1 28.09.2026 -
Griffin Yow New England Revolution Aktiv 132 / 114 40% 2 15.09.2026 -
André Luiz Sporting Kansas City Aktiv 120 / 138 40% 1 15.09.2026 -
Diego Luna Real Salt Lake Aktiv 115 / 142 40% 1 10.09.2026 -
Theo Corbeanu Toronto FC Aktiv 112 / 130 40% 2 09.09.2026 -
Jake Davis Sporting Kansas City Aktiv 108 / 101 40% 1 09.09.2026 -
Daniel Karlsbakk Sarpsborg 08 Aktiv 136 / 124 40% 1 31.08.2026 -